Home > Time Zones > World Clock > Weather > Spain > Cadiz > Past weeks

Flag for Spain Weather past 2 weeks in Cadiz, Cádiz, Spain

Now
70 °F

Partly sunny.


Feels Like: 70 °F
Forecast: 64 / 72 °F
Wind: 7 mph from Southwest

Location: Rota Airport

Current Time: Sep 2, 2015 at 10:43:51 AM

Latest Report: Sep 2, 2015 at 10:00 AM


Visibility: N/A

Pressure: 30.01 "Hg

Humidity: 83%

Dew point: 64 °F

Location of CadizLocation

Historic Weather in Cadiz — Graph

°F

Cadiz temperature yesterday

Maximum temperature yesterday: 77 °F (at 4:00 PM)
Minimum temperature yesterday: 68 °F (at 7:00 AM)
Average temperature yesterday: 72 °F

Past Weeks' High & Low Weather Summary

 TemperatureHumidityPressure
High93 °F (Aug 28, 2:47 PM)100% (Aug 31, 4:00 AM)30.09 "Hg (Aug 31, 4:00 AM)
Low61 °F (Aug 25, 6:00 AM)37% (Aug 25, 1:00 PM)29.86 "Hg (Aug 30, 12:00 AM)
Average75 °F74%29.99 "Hg
* Reported Aug 18 9:00 AM — Sep 2 9:00 AM, Cadiz, Weather by CustomWeather, © 2015

Note: Actual official high and low records may vary slightly from our data, if they occured in-between our weather recording intervals... More about our weather records

Advertising

Cadiz weather history for previous 24 hours

 ConditionsComfort  
Time TempWeatherWind HumidityBarometerVisibility
9:00 AM
Wed, Sep 2
70 °FScattered clouds.7 mph78%29.98 "HgN/A
8:00 AM68 °FPassing clouds.7 mph83%29.98 "HgN/A
7:00 AM68 °FPassing clouds.6 mph88%29.98 "HgN/A
6:00 AM68 °FPassing clouds.7 mph88%29.98 "Hg6 mi
5:00 AM68 °FPassing clouds.6 mph88%29.98 "Hg6 mi
4:00 AM68 °FPassing clouds.6 mph94%29.98 "Hg6 mi
3:00 AM68 °FPassing clouds.3 mph94%30.01 "Hg6 mi
2:00 AM68 °FPassing clouds.6 mph94%30.01 "Hg6 mi
1:00 AM68 °FPassing clouds.6 mph94%30.01 "Hg6 mi
12:00 AM70 °FClear.6 mph88%30.01 "Hg6 mi
11:00 PM
Tue, Sep 1
70 °FPassing clouds.8 mph88%30.01 "HgN/A
10:00 PM70 °FPassing clouds.9 mph88%30.01 "HgN/A
9:00 PM70 °FPassing clouds.9 mph88%30.01 "HgN/A
8:00 PM73 °FPassing clouds.12 mph78%30.01 "HgN/A
7:00 PM73 °FPassing clouds.12 mph78%30.01 "HgN/A
6:00 PM75 °FScattered clouds.9 mph74%30.01 "HgN/A
5:00 PM75 °FScattered clouds.12 mph78%30.04 "HgN/A
4:00 PM77 °FScattered clouds.15 mph74%30.04 "HgN/A
3:00 PM75 °FScattered clouds.13 mph78%30.07 "HgN/A
2:00 PM75 °FScattered clouds.12 mph78%30.07 "HgN/A
1:00 PM75 °FPassing clouds.9 mph69%30.07 "HgN/A
12:00 PM73 °FPassing clouds.6 mph78%30.07 "HgN/A
11:00 AM73 °FPassing clouds.6 mph74%30.07 "HgN/A
10:00 AM72 °FPassing clouds.9 mph78%30.04 "HgN/A
Weather by CustomWeather, © 2015

See weather overviewHow to use our weather pages